Hourly Data Report for July 16, 2021

TORONTO CITY
ONTARIO
Current Station Operator: ECCC - MSC

43°40'00.000" N
79°24'00.000" W
112.50 m
6158355
71508
XTO

Download Data

Hourly Data (July 2021)
Hourly Data Report for July 16, 2021
TIME
LST
Temp Definition
°C
Dew Point Definition
°C
Rel Hum Definition
%
Precip. Amount Definition
mm

Wind Dir Definition
10's deg

Wind Spd Definition
km/h
Visibility Definition
km
Stn Press Definition
kPa
Hmdx Definition


Wind Chill Definition


Weather Definition


00:00 20.1 18.4 90 0.0       100.06 26   LegendNANA
01:00 19.9 18.1 90 0.0       100.06     LegendNANA
02:00 19.7 17.4 86 0.0       100.10     LegendNANA
03:00 19.5 17.4 88 0.0       100.14     LegendNANA
04:00 19.5 17.3 87 0.0       100.19     LegendNANA
05:00 19.2 16.5 84 0.0       100.26     LegendNANA
06:00 18.8 16.8 88 0.0       100.32     LegendNANA
07:00 19.5 16.6 83 0.0       100.38     LegendNANA
08:00 20.7 16.4 76 0.0       100.44 26   LegendNANA
09:00 21.2 15.8 72 0.0       100.48 26   LegendNANA
10:00 22.0 15.1 65 0.0       100.47 26   LegendNANA
11:00 22.9 13.6 56 0.0       100.49 26   LegendNANA
12:00 23.8 14.5 56 0.0       100.50 27   LegendNANA
13:00 23.6 17.0 67 0.0       100.47 29   LegendNANA
14:00 23.0 16.0 65 0.0       100.44 28   LegendNANA
15:00 22.9 16.8 69 0.0       100.41 28   LegendNANA
16:00 23.1 16.7 67 0.0       100.39 28   LegendNANA
17:00 22.0 16.0 69 0.0       100.38 27   LegendNANA
18:00 21.8 15.9 69 0.0       100.38 26   LegendNANA
19:00 21.7 15.3 67 0.0       100.38 26   LegendNANA
20:00 21.2 15.1 68 0.0       100.41 25   LegendNANA
21:00 21.2 14.9 67 0.0       100.46 25   LegendNANA
22:00 21.5 14.8 66 0.0       100.47 25   LegendNANA
23:00 21.0 14.9 68 0.0       100.44 25   LegendNANA

Notes on Data Quality.

Legend

  • E = Estimated
  • M = Missing
  • NA = Not Available*
  • [empty] = Indicates an unobserved value
Date modified: